Location: Noverd
(38.0910°N, 121.6877°W)
Time: 06:13:54
(UTC+00:00)

Cosmos 2100 Rocket - Pass Details

Date: 24 May 2026
Orbit: 956 x 999 km, 82.9° (Epoch: 8 June)

Event Time Altitude Azimuth Distance (km) Brightness Sun altitude
Rises 04:37:39 0° 245° (WSW) 3,680 7.3 -13.9°
Reaches altitude 10° 04:42:35 10° 279° (W) 2,749 7.3 -14.6°
Maximum altitude 04:44:16 11° 295° (WNW) 2,677 7.5 -14.8°
Drops below altitude 10° 04:45:57 10° 311° (NW) 2,760 7.8 -15.1°
Sets 04:50:59 0° 345° (NNW) 3,723 8.1 -15.8°
